timestamp,surface_pressure_avg,surface_temp_avg,battery_voltage,lat,long
2020-07-09 00:09:01+00:00,292.738,15.8,13.21,47.84626,-54.09684
2020-07-09 00:19:01+00:00,300.2947,15.8,12.81,47.84626,-54.09684
2020-07-09 00:29:01+00:00,306.1464,15.79,12.81,47.84626,-54.09684
2020-07-09 00:39:01+00:00,313.3079,15.78,12.81,47.84626,-54.09684
2020-07-09 00:49:01+00:00,321.1897,15.75,12.81,47.84626,-54.09684
2020-07-09 00:59:01+00:00,330.24300000000005,15.7,12.81,47.84626,-54.09684
2020-07-09 01:09:01+00:00,334.9464,15.7,12.81,47.84626,-54.09684
2020-07-09 01:19:01+00:00,339.3314,15.7,12.73,47.84626,-54.09684
2020-07-09 01:29:01+00:00,343.2446,15.69,12.73,47.84626,-54.09684
2020-07-09 01:39:01+00:00,347.0829,15.67,12.73,47.84626,-54.09684
2020-07-09 01:49:01+00:00,347.3379,15.69,12.73,47.84626,-54.09684
2020-07-09 01:59:01+00:00,347.4796,15.7,12.73,47.84626,-54.09684
2020-07-09 02:09:01+00:00,350.6129,15.7,12.73,47.84626,-54.09684
2020-07-09 02:19:01+00:00,350.81800000000015,15.69,12.73,47.84626,-54.09684
2020-07-09 02:29:01+00:00,349.3047,15.7,12.73,47.84626,-54.09684
2020-07-09 02:39:01+00:00,349.1078,15.7,12.73,47.84626,-54.09684
2020-07-09 02:49:01+00:00,350.9512,15.7,12.73,47.84626,-54.09684
2020-07-09 02:59:01+00:00,348.968,15.7,12.73,47.84626,-54.09684
2020-07-09 03:09:01+00:00,343.8379,15.7,12.73,47.84626,-54.09684
2020-07-09 03:19:01+00:00,341.6329,15.7,12.73,47.84626,-54.09684
2020-07-09 03:29:01+00:00,339.8797,15.7,12.73,47.84626,-54.09684
2020-07-09 03:39:01+00:00,336.5529,15.7,12.73,47.84626,-54.09684
2020-07-09 03:49:01+00:00,330.5714,15.7,12.73,47.84626,-54.09684
2020-07-09 03:59:01+00:00,328.0663,15.7,12.73,47.84626,-54.09684
2020-07-09 04:09:01+00:00,325.2379,15.7,12.73,47.84626,-54.09684
2020-07-09 04:19:01+00:00,321.0363,15.7,12.73,47.84626,-54.09684
2020-07-09 04:29:01+00:00,316.2964,15.7,12.73,47.84626,-54.09684
2020-07-09 04:39:01+00:00,312.1063,15.7,12.73,47.84626,-54.09684
2020-07-09 04:49:01+00:00,304.2947,15.7,12.73,47.84626,-54.09684
2020-07-09 04:59:01+00:00,297.6547,15.72,12.73,47.84626,-54.09684
2020-07-09 05:09:01+00:00,290.9431,15.74,12.73,47.84626,-54.09684
2020-07-09 05:19:01+00:00,282.453,15.75,12.73,47.84626,-54.09684
2020-07-09 05:29:01+00:00,270.5664,15.75,12.73,47.84626,-54.09684
2020-07-09 05:39:01+00:00,262.5898,15.75,12.73,47.84626,-54.09684
2020-07-09 05:49:01+00:00,256.6631,15.76,12.73,47.84626,-54.09684
2020-07-09 05:59:01+00:00,247.5381,15.76,12.73,47.84626,-54.09684
2020-07-09 06:09:01+00:00,237.0314,15.73,12.73,47.84626,-54.09684
2020-07-09 06:19:01+00:00,230.5815,15.73,12.65,47.84626,-54.09684
2020-07-09 06:29:01+00:00,223.4164,15.73,12.65,47.84626,-54.09684
2020-07-09 06:39:01+00:00,213.4897,15.71,12.65,47.84626,-54.09684
2020-07-09 06:49:01+00:00,205.0631,15.72,12.65,47.84626,-54.09684
2020-07-09 06:59:01+00:00,201.2165,15.72,12.65,47.84626,-54.09684
2020-07-09 07:09:01+00:00,195.9648,15.71,12.65,47.84626,-54.09684
2020-07-09 07:19:01+00:00,188.6715,15.71,12.65,47.84626,-54.09684
2020-07-09 07:29:01+00:00,184.6282,15.7,12.65,47.84626,-54.09684
2020-07-09 07:39:01+00:00,183.5882,15.7,12.65,47.84626,-54.09684
2020-07-09 07:49:01+00:00,182.5015,15.7,12.65,47.84626,-54.09684
2020-07-09 07:59:01+00:00,180.4498,15.7,12.65,47.84626,-54.09684
2020-07-09 08:09:01+00:00,181.9998,15.7,12.65,47.84626,-54.09684
2020-07-09 08:19:01+00:00,186.3065,15.7,12.65,47.84626,-54.09684
2020-07-09 08:29:01+00:00,189.7565,15.7,12.65,47.84626,-54.09684
2020-07-09 08:39:01+00:00,192.7648,15.7,12.65,47.84626,-54.09684
2020-07-09 08:49:01+00:00,195.4431,15.7,12.65,47.84626,-54.09684
2020-07-09 08:59:01+00:00,198.0514,15.7,12.65,47.84626,-54.09684
2020-07-09 09:09:01+00:00,200.3515,15.7,12.65,47.84626,-54.09684
2020-07-09 09:19:01+00:00,204.6848,15.7,12.65,47.84626,-54.09684
2020-07-09 09:29:01+00:00,207.5547,15.7,12.65,47.84626,-54.09684
2020-07-09 09:39:01+00:00,208.7714,15.7,12.65,47.84626,-54.09684
2020-07-09 09:49:01+00:00,209.4648,15.7,12.65,47.84626,-54.09684
2020-07-09 09:59:01+00:00,213.4097,15.7,12.65,47.84626,-54.09684
2020-07-09 10:09:01+00:00,220.0765,15.7,12.65,47.84626,-54.09684
2020-07-09 10:19:01+00:00,220.9098,15.7,12.73,47.84626,-54.09684
2020-07-09 10:29:01+00:00,219.2964,15.7,12.73,47.84626,-54.09684
2020-07-09 10:39:01+00:00,224.0581,15.7,12.73,47.84626,-54.09684
2020-07-09 10:49:01+00:00,228.9648,15.7,12.73,47.84626,-54.09684
2020-07-09 10:59:01+00:00,227.3431,15.69,12.73,47.84626,-54.09684
2020-07-09 11:09:01+00:00,227.5698,15.7,12.73,47.84626,-54.09684
2020-07-09 11:19:01+00:00,236.8131,15.69,12.89,47.84626,-54.09684
2020-07-09 11:29:01+00:00,243.0915,15.62,12.89,47.84626,-54.09684
2020-07-09 11:39:01+00:00,244.8097,15.61,12.89,47.84626,-54.09684
2020-07-09 11:49:01+00:00,249.0231,15.63,12.89,47.84626,-54.09684
2020-07-09 11:59:01+00:00,257.8114,15.6,12.89,47.84626,-54.09684
2020-07-09 12:09:01+00:00,264.8864,15.6,12.89,47.84626,-54.09684
2020-07-09 12:19:01+00:00,268.4064,15.6,13.29,47.84626,-54.09684
2020-07-09 12:29:01+00:00,274.2647,15.6,13.29,47.84626,-54.09684
2020-07-09 12:39:01+00:00,280.8414,15.6,13.29,47.84626,-54.09684
2020-07-09 12:49:01+00:00,285.598,15.55,13.29,47.84626,-54.09684
2020-07-09 12:59:01+00:00,287.608,15.5,13.29,47.84626,-54.09684
2020-07-09 13:09:01+00:00,294.6397,15.5,13.29,47.84626,-54.09684
2020-07-09 13:19:01+00:00,303.0147,15.4,13.37,47.84626,-54.09684
2020-07-09 13:29:01+00:00,306.2313,15.4,13.37,47.84626,-54.09684
2020-07-09 13:39:01+00:00,309.9514,15.47,13.37,47.84626,-54.09684
2020-07-09 13:49:01+00:00,314.118,15.5,13.37,47.84626,-54.09684
2020-07-09 13:59:01+00:00,316.5797,15.56,13.37,47.84626,-54.09684
2020-07-09 14:09:01+00:00,317.3279,15.59,13.37,47.84626,-54.09684
2020-07-09 14:19:01+00:00,320.9163,15.6,13.53,47.84626,-54.09684
2020-07-09 14:29:01+00:00,320.928,15.6,13.53,47.84626,-54.09684
2020-07-09 14:39:01+00:00,317.0664,15.58,13.53,47.84626,-54.09684
2020-07-09 14:49:01+00:00,318.183,15.57,13.53,47.84626,-54.09684
2020-07-09 14:59:01+00:00,321.0247,15.59,13.53,47.84626,-54.09684
2020-07-09 15:09:01+00:00,317.9396,15.6,13.53,47.84626,-54.09684
2020-07-09 15:19:01+00:00,316.8896,14.95,13.68,47.84626,-54.09684
2020-07-09 15:29:01+00:00,321.8163,14.81,13.68,47.84626,-54.09684
2020-07-09 15:39:01+00:00,321.0397,15.16,13.68,47.84626,-54.09684
2020-07-09 15:49:01+00:00,316.4647,15.3,13.68,47.84626,-54.09684
2020-07-09 15:59:01+00:00,313.4329,15.43,13.68,47.84626,-54.09684
2020-07-09 16:09:01+00:00,313.1097,15.56,13.68,47.84626,-54.09684
2020-07-09 16:19:01+00:00,307.1813,15.6,14.0,47.84626,-54.09684
2020-07-09 16:29:01+00:00,305.4597,15.59,14.0,47.84626,-54.09684
2020-07-09 16:39:01+00:00,305.3914,15.48,14.0,47.84626,-54.09684
2020-07-09 16:49:01+00:00,302.8964,15.57,14.0,47.84626,-54.09684
2020-07-09 16:59:01+00:00,295.2114,15.6,14.0,47.84626,-54.09684
2020-07-09 17:09:01+00:00,291.4865,15.5,14.0,47.84626,-54.09684
2020-07-09 17:19:01+00:00,285.9247,15.59,14.0,47.84626,-54.09684
2020-07-09 17:29:01+00:00,277.9197,15.6,14.0,47.84626,-54.09684
2020-07-09 17:39:01+00:00,271.3931,15.6,14.0,47.84626,-54.09684
2020-07-09 17:49:01+00:00,267.3997,15.6,14.0,47.84626,-54.09684
2020-07-09 17:59:01+00:00,257.3481,15.6,14.0,47.84626,-54.09684
2020-07-09 18:09:01+00:00,246.1381,15.6,14.0,47.84626,-54.09684
2020-07-09 18:19:01+00:00,238.91299999999998,15.6,13.92,47.84626,-54.09684
2020-07-09 18:29:01+00:00,231.2381,15.6,13.92,47.84626,-54.09684
2020-07-09 18:39:01+00:00,222.1698,15.6,13.92,47.84626,-54.09684
2020-07-09 18:49:01+00:00,213.5631,15.6,13.92,47.84626,-54.09684
2020-07-09 18:59:01+00:00,207.3464,15.6,13.92,47.84626,-54.09684
2020-07-09 19:09:01+00:00,202.3814,15.6,13.92,47.84626,-54.09684
2020-07-09 19:19:01+00:00,196.9615,15.6,13.68,47.84626,-54.09684
2020-07-09 19:29:01+00:00,193.8748,15.6,13.68,47.84626,-54.09684
2020-07-09 19:39:01+00:00,192.9948,15.6,13.68,47.84626,-54.09684
2020-07-09 19:49:01+00:00,192.3315,15.6,13.68,47.84626,-54.09684
2020-07-09 19:59:01+00:00,191.4481,15.6,13.68,47.84626,-54.09684
2020-07-09 20:09:01+00:00,189.0764,15.59,13.68,47.84626,-54.09684
2020-07-09 20:19:01+00:00,188.2248,15.6,13.53,47.84626,-54.09684
2020-07-09 20:29:01+00:00,188.4381,15.6,13.53,47.84626,-54.09684
2020-07-09 20:39:01+00:00,187.2465,15.6,13.53,47.84626,-54.09684
2020-07-09 20:49:01+00:00,186.5248,15.6,13.53,47.84626,-54.09684
2020-07-09 20:59:01+00:00,189.9814,15.6,13.53,47.84626,-54.09684
2020-07-09 21:09:01+00:00,192.6215,15.6,13.53,47.84626,-54.09684
2020-07-09 21:19:01+00:00,194.1064,15.61,13.37,47.84626,-54.09684
2020-07-09 21:29:01+00:00,199.7781,15.63,13.37,47.84626,-54.09684
2020-07-09 21:39:01+00:00,206.0448,15.64,13.37,47.84626,-54.09684
2020-07-09 21:49:01+00:00,208.3081,15.65,13.37,47.84626,-54.09684
2020-07-09 21:59:01+00:00,210.8514,15.65,13.37,47.84626,-54.09684
2020-07-09 22:09:01+00:00,215.8448,15.66,13.37,47.84626,-54.09684
2020-07-09 22:19:01+00:00,221.0164,15.6,13.13,47.84626,-54.09684
2020-07-09 22:29:01+00:00,223.898,15.6,13.13,47.84626,-54.09684
2020-07-09 22:39:01+00:00,227.1565,15.62,13.13,47.84626,-54.09684
2020-07-09 22:49:01+00:00,231.6681,15.6,13.13,47.84626,-54.09684
2020-07-09 22:59:01+00:00,234.1948,15.6,13.13,47.84626,-54.09684
2020-07-09 23:09:01+00:00,236.6431,15.6,13.13,47.84626,-54.09684
2020-07-09 23:19:01+00:00,241.0581,15.6,12.81,47.84626,-54.09684
2020-07-09 23:29:01+00:00,246.7914,15.6,12.81,47.84626,-54.09684
2020-07-09 23:39:01+00:00,249.3231,15.58,12.81,47.84626,-54.09684
2020-07-09 23:49:01+00:00,251.6031,15.58,12.81,47.84626,-54.09684
2020-07-09 23:59:01+00:00,257.8064,15.55,12.81,47.84626,-54.09684
